Location: Campestrin
(46.4667°N, 11.7167°E)
Time: 11:11:50
(UTC+00:00)

ATLAS 2AS CENTAUR R/B - Pass Details

Date: 18 April 2021
Orbit: 949 x 1263 km, 63.7° (Epoch: 02 May)

Event Time Altitude Azimuth Distance (km) Brightness Sun altitude
Rises 19:58:53 0° 238° (WSW) 4,202 6.0 -18.0°
Reaches altitude 10° 20:01:47 10° 243° (WSW) 3,244 5.5 -18.4°
Maximum altitude 20:09:28 52° 318° (NW) 1,519 3.9 -19.4°
Drops below altitude 10° 20:16:59 10° 35° (NE) 3,173 5.3 -20.3°
Sets 20:19:49 0° 40° (NE) 4,104 5.8 -20.7°
